This is the latest recevied weather packets stored in our database for station/object WC4PEM-14. If no packets are shown the sender has not sent any weather packets the latest 10 day(s).
| Time | Temp. | Humidity | Pressure | Rain* | Wind** | Luminosity | Snow |
|---|---|---|---|---|---|---|---|
| 1777236105 | 31.67° C | 44% | 1008.9 hPa | 0 mm | - | - | - |
| 1777235913 | 31.67° C | 44% | 1008.9 hPa | 0 mm | - | - | - |
| 1777235790 | 31.67° C | 47% | 1008.9 hPa | 0 mm | - | - | - |
| 1777235613 | 31.67° C | 47% | 1008.9 hPa | 0 mm | - | - | - |
| 1777235524 | 31.67° C | 46% | 1008.9 hPa | 0 mm | - | - | - |
| 1777235313 | 31.67° C | 46% | 1008.9 hPa | 0 mm | - | - | - |
| 1777235013 | 31.67° C | 46% | 1008.9 hPa | 0 mm | - | - | - |
| 1777234922 | 31.67° C | 47% | 1008.8 hPa | 0 mm | - | - | - |
| 1777234713 | 31.67° C | 47% | 1008.8 hPa | 0 mm | - | - | - |
| 1777234550 | 31.67° C | 46% | 1008.9 hPa | 0 mm | - | - | - |
| 1777234413 | 31.67° C | 46% | 1008.9 hPa | 0 mm | - | - | - |
| 1777234267 | 31.67° C | 48% | 1008.9 hPa | 0 mm | - | - | - |
| 1777234113 | 31.67° C | 48% | 1008.9 hPa | 0 mm | - | - | - |
| 1777233949 | 31.11° C | 48% | 1008.9 hPa | 0 mm | - | - | - |
| 1777233813 | 31.11° C | 48% | 1008.9 hPa | 0 mm | - | - | - |
| 1777233698 | 30.56° C | 49% | 1008.9 hPa | 0 mm | - | - | - |
| 1777233513 | 30.56° C | 49% | 1008.9 hPa | 0 mm | - | - | - |
| 1777233213 | 30.56° C | 50% | 1009 hPa | 0 mm | - | - | - |
| 1777233048 | 30.56° C | 51% | 1009 hPa | 0 mm | - | - | - |
| 1777232913 | 30.56° C | 51% | 1009 hPa | 0 mm | - | - | - |
| 1777232819 | 31.11° C | 48% | 1009.1 hPa | 0 mm | - | - | - |
| 1777232613 | 31.11° C | 48% | 1009.1 hPa | 0 mm | - | - | - |
| 1777232449 | 32.22° C | 50% | 1009.1 hPa | 0 mm | - | - | - |
| 1777232313 | 32.22° C | 50% | 1009.1 hPa | 0 mm | - | - | - |
| 1777232279 | 31.67° C | 49% | 1009.2 hPa | 0 mm | - | - | - |
* Rain latest hour (hover to see other rain measurements)
** Current wind speed in m/s (hover to see current wind gust speed)